[[{"header":{"parameterUnit":"m.s-1","parameterCategory":1,"la1":30.2991,"la2":30.254,"lo1":-89.0895,"lo2":-89.0444,"dy":0.0017,"dx":0.0017,"nx":28,"ny":28,"refTime":"2024-07-06T09:00:00:Z","depth":0,"parameterNumber":2,"parameterNumberName":"U-component_of_WINDS"},"data":[0,0,0,0,0,0,0,0,0,0,0,0,0,0,0,0,0,0,0,0,0,0,0,0,0,0,0,0,0,0,0,0,0,0,0,0,0,0,0,0,0,0,0,0,0,0,0,0,0,0,0,0,0,0,0,0,0,0,-0.3989,-0.3989,0,-0.3996,-0.3996,-0.3996,-0.3971,-0.397,-0.3969,-0.3969,-0.3975,-0.3975,-0.3976,0,0,0,0,0,0,0,0,0,0,0,0,0,-0.3953,-0.3954,-0.3989,-0.3989,-0.3989,-0.3996,-0.3996,-0.3996,-0.3971,-0.397,-0.3969,-0.3968,-0.3974,-0.3975,-0.3976,0,0,0,0,0,0,0,0,0,0,0,0,0,-0.3965,-0.3954,-0.3989,-0.3978,-0.3977,-0.3996,-0.3996,-0.3996,-0.3971,-0.397,-0.3969,-0.3968,-0.3974,-0.3975,-0.3976,-0.4007,0,0,-0.398,-0.3981,0,0,0,0,0,0,0,0,-0.3965,-0.3967,-0.3979,-0.3979,-0.3978,-0.3982,-0.3986,-0.4,-0.3972,-0.3973,-0.3969,-0.3967,-0.3978,-0.3979,-0.3982,-0.4007,-0.4007,-0.3981,-0.3981,-0.3982,-0.3982,0,0,0,0,0,0,0,-0.3964,-0.3966,-0.3992,-0.398,-0.3978,-0.3972,-0.3972,-0.3988,-0.3982,-0.3973,-0.3971,-0.3973,-0.3977,-0.3981,-0.3982,-0.4008,-0.398,-0.3982,-0.3982,-0.3983,-0.4057,-0.4058,0,0,0,0,0,0,-0.3965,-0.3966,-0.3992,-0.3992,-0.3968,-0.3973,-0.3974,-0.3981,-0.3982,-0.398,-0.3973,-0.3971,-0.398,-0.3981,-0.3982,-0.4017,-0.3982,-0.3983,-0.3984,-0.4055,-0.4057,-0.4058,0,0,0,0,0,0,-0.3964,-0.3967,-0.3991,-0.3978,-0.3981,-0.3975,-0.3984,-0.3982,-0.3986,-0.3982,-0.398,-0.3979,-0.3979,-0.3981,-0.4001,-0.4017,-0.3984,-0.3985,-0.4054,-0.4056,-0.4057,-0.4087,0,0,0,0,0,0,-0.3963,-0.3967,-0.3979,-0.3979,-0.3982,-0.401,-0.3985,-0.3983,-0.3989,-0.3986,-0.3987,-0.3986,-0.3978,-0.3999,-0.4002,-0.4018,-0.3986,-0.4052,-0.4055,-0.4057,-0.4084,-0.409,-0.4094,0,0,0,0,0,-0.3962,-0.3987,-0.398,-0.3983,-0.3997,-0.4011,-0.4013,-0.4004,-0.399,-0.4001,-0.3999,-0.3986,-0.4015,-0.4001,-0.4005,-0.4021,-0.4051,-0.4054,-0.4057,-0.4082,-0.4089,-0.4094,0,0,0,0,0,0,-0.3988,-0.3987,-0.3979,-0.4005,-0.4008,-0.4007,-0.4021,-0.4011,-0.4018,-0.4015,-0.4004,-0.4004,-0.4026,-0.4026,-0.4011,-0.405,-0.4031,-0.4034,-0.4049,-0.4055,-0.4059,-0.4058,-0.3987,0,0,0,0,0,-0.3998,-0.401,-0.4008,-0.4031,-0.4033,-0.4027,-0.4033,-0.4026,-0.4029,-0.403,-0.4029,-0.4032,-0.4042,-0.4049,-0.4058,-0.4085,-0.4084,-0.4098,-0.4103,-0.4106,-0.4109,-0.4122,-0.4128,-0.4067,-0.4067,-0.4067,0,0,-0.4016,-0.4017,-0.4025,-0.4036,-0.4038,-0.4051,-0.4028,-0.4043,-0.4052,-0.4032,-0.4051,-0.405,-0.4053,-0.4077,-0.4087,-0.4077,-0.4126,-0.411,-0.4113,-0.4113,-0.4126,-0.4131,-0.4136,-0.4069,-0.4068,-0.4068,0,0,-0.4056,-0.4058,-0.4077,-0.408,-0.4083,-0.4079,-0.4083,-0.4084,-0.4082,-0.4101,-0.4087,-0.4097,-0.4115,-0.4117,-0.4121,-0.4162,-0.4149,-0.4165,-0.4189,-0.4202,-0.4206,-0.4211,-0.4224,-0.4229,-0.4168,-0.4168,-0.4168,0,-0.4078,-0.4097,-0.4088,-0.4103,-0.4108,-0.4092,-0.411,-0.4113,-0.4119,-0.4123,-0.4112,-0.4133,-0.4134,-0.4157,-0.4167,-0.4171,-0.4175,-0.4164,-0.4207,-0.4211,-0.4214,-0.4227,-0.4232,-0.417,-0.417,-0.4169,-0.4169,0,-0.4123,-0.4136,-0.4151,-0.4158,-0.4164,-0.4181,-0.4174,-0.4182,-0.4175,-0.4172,-0.4191,-0.4191,-0.42,-0.4205,-0.4198,-0.4227,-0.4221,-0.4209,-0.4189,-0.4222,-0.4234,-0.4238,-0.4172,-0.4172,-0.4171,-0.4171,0,0,-0.4179,-0.418,-0.4186,-0.4188,-0.4191,-0.4201,-0.4217,-0.4225,-0.4232,-0.4237,-0.4249,-0.4264,-0.4253,-0.4257,-0.425,-0.4262,-0.4293,-0.4248,-0.4248,-0.4255,-0.4324,-0.4331,-0.4337,-0.4285,-0.4286,-0.4287,-0.4323,0,-0.4216,-0.4244,-0.4236,-0.4263,-0.4275,-0.426,-0.4274,-0.4277,-0.4274,-0.4284,-0.4281,-0.4291,-0.4276,-0.4278,-0.429,-0.4287,-0.4306,-0.4284,-0.4296,-0.4296,-0.4294,-0.4343,-0.4352,-0.4386,-0.4327,-0.4328,-0.4329,0,-0.4264,-0.4271,-0.4299,-0.4299,-0.4304,-0.4316,-0.4323,-0.4333,-0.4335,-0.4333,-0.4338,-0.4328,-0.4343,-0.4325,-0.4345,-0.433,-0.4335,-0.4334,-0.4335,-0.4334,-0.4313,-0.4343,-0.4396,-0.4401,-0.4336,-0.4335,-0.4335,0,-0.4299,-0.4316,-0.4335,-0.4337,-0.4339,-0.4348,-0.4349,-0.4351,-0.4356,-0.4362,-0.4365,-0.4373,-0.4377,-0.4383,-0.4376,-0.4363,-0.4397,-0.4378,-0.4394,-0.4394,-0.44,-0.44,-0.4454,-0.4406,-0.4406,-0.4406,-0.4406,0,-0.4341,-0.4359,-0.435,-0.4362,-0.4381,-0.4372,-0.4391,-0.439,-0.4392,-0.4403,-0.4391,-0.4401,-0.4392,-0.4401,-0.4396,-0.4412,-0.4415,-0.4412,-0.441,-0.4412,-0.4412,-0.4414,-0.4411,-0.4407,-0.4407,-0.4407,-0.4407,0,-0.4383,-0.4379,-0.4398,-0.4398,-0.4398,-0.4412,-0.4412,-0.4422,-0.4419,-0.4433,-0.4435,-0.4431,-0.4441,-0.4435,-0.4445,-0.4441,-0.4463,-0.4458,-0.4462,-0.446,-0.4476,-0.4474,-0.4531,-0.4538,-0.4488,-0.4488,-0.4489,0,-0.4409,-0.4422,-0.4424,-0.443,-0.4432,-0.4443,-0.4448,-0.444,-0.4446,-0.4451,-0.446,-0.447,-0.4476,-0.4493,-0.449,-0.4498,-0.4493,-0.4512,-0.4494,-0.4495,-0.4491,-0.449,-0.449,-0.4515,-0.4516,-0.4517,-0.4517,0,-0.4456,-0.4453,-0.4461,-0.4469,-0.4476,-0.4482,-0.4486,-0.4492,-0.4485,-0.4492,-0.4502,-0.4508,-0.4518,-0.4527,-0.4534,-0.4534,-0.4524,-0.4523,-0.4527,-0.4528,-0.4529,-0.4527,-0.447,-0.4521,-0.4521,-0.4521,-0.452,-0.452,-0.4489,-0.45,-0.4502,-0.4512,-0.4515,-0.452,-0.4529,-0.4528,-0.4536,-0.4544,-0.4539,-0.4551,-0.4554,-0.4561,-0.4563,-0.4572,-0.4564,-0.457,-0.4571,-0.4572,-0.4574,-0.4529,-0.4573,-0.4573,-0.4573,-0.4573,-0.4573,0,-0.4533,-0.4535,-0.4544,-0.4551,-0.4558,-0.4549,-0.4554,-0.4561,-0.4571,-0.4575,-0.4582,-0.4593,-0.4602,-0.46,-0.4608,-0.4615,-0.461,-0.4617,-0.4615,-0.4616,-0.4581,-0.4576,-0.462,-0.462,-0.462,-0.462,-0.462,-0.462,-0.4557,-0.4574,-0.4572,-0.459,-0.4591,-0.4602,-0.4606,-0.461,-0.4612,-0.4626,-0.4633,-0.4632,-0.4633,-0.4641,-0.4648,-0.4647,-0.465,-0.4658,-0.4655,-0.4623,-0.4618,-0.4614,-0.4609,-0.4659,-0.4659,-0.4689,-0.4689,-0.4689]},{"header":{"parameterUnit":"m.s-1","parameterCategory":1,"la1":30.2991,"la2":30.254,"lo1":-89.0895,"lo2":-89.0444,"dy":0.0017,"dx":0.0017,"nx":28,"ny":28,"refTime":"2024-07-06T09:00:00:Z","depth":0,"parameterNumber":3,"parameterNumberName":"V-component_of_WINDS"},"data":[0,0,0,0,0,0,0,0,0,0,0,0,0,0,0,0,0,0,0,0,0,0,0,0,0,0,0,0,0,0,0,0,0,0,0,0,0,0,0,0,0,0,0,0,0,0,0,0,0,0,0,0,0,0,0,0,0,0,-1.3128,-1.3128,0,-1.3139,-1.3139,-1.3139,-1.3183,-1.3184,-1.3185,-1.3186,-1.3198,-1.3197,-1.3196,0,0,0,0,0,0,0,0,0,0,0,0,0,-1.3143,-1.3143,-1.3128,-1.3128,-1.3128,-1.3139,-1.3139,-1.3139,-1.3183,-1.3184,-1.3186,-1.3187,-1.3198,-1.3197,-1.3196,0,0,0,0,0,0,0,0,0,0,0,0,0,-1.3144,-1.3143,-1.3128,-1.3151,-1.3153,-1.3139,-1.3139,-1.3139,-1.3183,-1.3185,-1.3186,-1.3187,-1.3198,-1.3197,-1.3196,-1.3159,0,0,-1.3193,-1.3193,0,0,0,0,0,0,0,0,-1.3144,-1.3143,-1.3148,-1.315,-1.3152,-1.3161,-1.3149,-1.3146,-1.3183,-1.3172,-1.3186,-1.3188,-1.3184,-1.3185,-1.3183,-1.316,-1.316,-1.3193,-1.3193,-1.3192,-1.3192,0,0,0,0,0,0,0,-1.3144,-1.3143,-1.3132,-1.3148,-1.315,-1.3161,-1.3163,-1.3148,-1.3169,-1.3173,-1.3176,-1.3177,-1.3186,-1.3184,-1.3184,-1.3161,-1.3193,-1.3192,-1.3192,-1.3191,-1.3105,-1.3104,0,0,0,0,0,0,-1.314,-1.3143,-1.3132,-1.3132,-1.3152,-1.3159,-1.3161,-1.3157,-1.317,-1.3173,-1.3175,-1.3179,-1.3185,-1.3185,-1.3184,-1.314,-1.3192,-1.3191,-1.3191,-1.3107,-1.3105,-1.3103,0,0,0,0,0,0,-1.314,-1.3139,-1.3131,-1.3138,-1.3138,-1.3157,-1.3152,-1.3156,-1.3154,-1.3172,-1.3175,-1.317,-1.3186,-1.3186,-1.3165,-1.3141,-1.3191,-1.319,-1.3109,-1.3106,-1.3104,-1.3053,0,0,0,0,0,0,-1.3141,-1.3139,-1.3125,-1.3138,-1.3138,-1.3111,-1.3151,-1.3155,-1.3153,-1.3157,-1.3167,-1.3171,-1.3187,-1.3166,-1.3164,-1.3141,-1.3189,-1.3111,-1.3108,-1.3105,-1.3056,-1.3049,-1.3042,0,0,0,0,0,-1.3141,-1.3111,-1.3124,-1.3123,-1.3121,-1.311,-1.311,-1.313,-1.3151,-1.3137,-1.3148,-1.317,-1.3145,-1.3163,-1.3161,-1.3138,-1.3113,-1.3109,-1.3105,-1.306,-1.305,-1.3042,0,0,0,0,0,0,-1.3095,-1.3113,-1.3128,-1.3101,-1.3104,-1.3118,-1.3101,-1.312,-1.3117,-1.3121,-1.3146,-1.3148,-1.3123,-1.3129,-1.3149,-1.3102,-1.3132,-1.3128,-1.3099,-1.309,-1.3083,-1.3081,-1.3188,0,0,0,0,0,-1.3082,-1.3072,-1.3088,-1.3062,-1.3063,-1.3081,-1.3077,-1.3093,-1.3096,-1.3098,-1.3107,-1.311,-1.3102,-1.3097,-1.3091,-1.3058,-1.306,-1.3041,-1.3034,-1.3027,-1.3023,-1.3004,-1.2995,-1.3091,-1.3091,-1.3091,0,0,-1.3055,-1.3063,-1.3055,-1.3053,-1.3057,-1.3045,-1.3082,-1.3069,-1.3059,-1.3096,-1.3076,-1.3083,-1.3087,-1.3059,-1.3048,-1.3064,-1.2997,-1.3023,-1.3018,-1.3016,-1.2999,-1.299,-1.2982,-1.3088,-1.3089,-1.3089,0,0,-1.2998,-1.3004,-1.2982,-1.2985,-1.299,-1.3003,-1.2997,-1.3008,-1.3014,-1.2994,-1.3021,-1.3011,-1.2998,-1.2999,-1.2998,-1.294,-1.296,-1.2938,-1.2899,-1.288,-1.2873,-1.2866,-1.2843,-1.2835,-1.2934,-1.2933,-1.2933,0,-1.2963,-1.2946,-1.2969,-1.2953,-1.295,-1.2982,-1.296,-1.2962,-1.2964,-1.2962,-1.298,-1.2962,-1.2968,-1.294,-1.2926,-1.2925,-1.2918,-1.2936,-1.2872,-1.2866,-1.286,-1.2838,-1.283,-1.293,-1.2931,-1.2931,-1.2931,0,-1.2902,-1.289,-1.2872,-1.2873,-1.2869,-1.2849,-1.2868,-1.2861,-1.2877,-1.2887,-1.2865,-1.2873,-1.2868,-1.2863,-1.2879,-1.2837,-1.2846,-1.2868,-1.2898,-1.2847,-1.2827,-1.2819,-1.2926,-1.2927,-1.2928,-1.2929,0,0,-1.2816,-1.2829,-1.2822,-1.2822,-1.283,-1.282,-1.2802,-1.2797,-1.279,-1.2791,-1.2775,-1.2762,-1.2782,-1.2781,-1.2796,-1.278,-1.2731,-1.2803,-1.2804,-1.2788,-1.2683,-1.2665,-1.2655,-1.2745,-1.2743,-1.2742,-1.2681,0,-1.2761,-1.273,-1.2749,-1.2715,-1.2703,-1.2733,-1.2716,-1.2719,-1.2728,-1.2718,-1.2729,-1.2718,-1.2746,-1.2745,-1.273,-1.274,-1.271,-1.2745,-1.2729,-1.2728,-1.2724,-1.2645,-1.2627,-1.2569,-1.2674,-1.2673,-1.2672,0,-1.2691,-1.2688,-1.2652,-1.266,-1.2656,-1.2641,-1.2637,-1.2628,-1.2631,-1.2639,-1.2636,-1.2656,-1.2637,-1.2669,-1.2643,-1.2667,-1.2661,-1.2665,-1.2663,-1.2661,-1.2695,-1.2638,-1.2551,-1.2542,-1.266,-1.2661,-1.2662,0,-1.263,-1.2617,-1.2593,-1.2592,-1.2602,-1.259,-1.2593,-1.2598,-1.2593,-1.259,-1.2586,-1.2581,-1.2578,-1.2573,-1.2589,-1.2611,-1.2561,-1.2594,-1.2565,-1.2564,-1.2552,-1.2552,-1.246,-1.2552,-1.2552,-1.2552,-1.2552,0,-1.2564,-1.2541,-1.2565,-1.255,-1.2524,-1.2546,-1.252,-1.2527,-1.253,-1.2516,-1.2543,-1.2529,-1.2553,-1.2542,-1.2556,-1.2531,-1.253,-1.2534,-1.2538,-1.2531,-1.253,-1.2526,-1.253,-1.255,-1.255,-1.255,-1.2551,0,-1.249,-1.2506,-1.2482,-1.2492,-1.2494,-1.2474,-1.2483,-1.2469,-1.248,-1.2462,-1.2459,-1.2476,-1.2464,-1.248,-1.2471,-1.2479,-1.2445,-1.2455,-1.2443,-1.2445,-1.2414,-1.2416,-1.2315,-1.2302,-1.2404,-1.2403,-1.2402,0,-1.2447,-1.2429,-1.2437,-1.2429,-1.2431,-1.2419,-1.2414,-1.2435,-1.2428,-1.2429,-1.2415,-1.2405,-1.2398,-1.2377,-1.2388,-1.238,-1.2389,-1.2354,-1.2388,-1.2381,-1.2386,-1.2386,-1.2383,-1.2347,-1.2346,-1.2345,-1.2344,0,-1.2366,-1.2374,-1.2366,-1.2359,-1.2352,-1.2348,-1.2346,-1.2338,-1.236,-1.2351,-1.2339,-1.2333,-1.2322,-1.2311,-1.2306,-1.2309,-1.2329,-1.2333,-1.2326,-1.2317,-1.231,-1.2311,-1.2422,-1.2335,-1.2336,-1.2337,-1.2337,-1.2337,-1.2305,-1.229,-1.2292,-1.2281,-1.2282,-1.2279,-1.2265,-1.2274,-1.2264,-1.2256,-1.2269,-1.2253,-1.2255,-1.225,-1.225,-1.2237,-1.2252,-1.2242,-1.2239,-1.2235,-1.2229,-1.2313,-1.2237,-1.2237,-1.2237,-1.2238,-1.2238,0,-1.2224,-1.2227,-1.2216,-1.2212,-1.2203,-1.2223,-1.2221,-1.2212,-1.2197,-1.2197,-1.2189,-1.2174,-1.2163,-1.2173,-1.2164,-1.2151,-1.216,-1.2148,-1.2148,-1.2148,-1.2218,-1.2224,-1.2141,-1.2141,-1.2141,-1.2141,-1.2141,-1.2141,-1.2181,-1.2155,-1.2163,-1.2138,-1.2141,-1.2125,-1.2122,-1.2119,-1.2118,-1.21,-1.2091,-1.2097,-1.21,-1.2092,-1.2082,-1.2085,-1.208,-1.2064,-1.207,-1.2134,-1.2144,-1.2152,-1.2158,-1.2063,-1.2063,-1.2001,-1.2,-1.2]}]]